| time (UTC) | temp F | wind direction | speed knots | gust knots | rain 1hr in | rain 24hr in | rain mn in | humidity % | barometer mb |
| 20260508054533 | 45 | 221 | 0.0 | 2.6 | 0.00 | 0.00 | 0.00 | 71 | 1012.9 |
| 20260508053019 | 45 | 246 | 0.0 | 0.0 | 0.00 | 0.00 | 0.00 | 72 | 1013.1 |
| 20260508051514 | 45 | 209 | 0.0 | 2.6 | 0.00 | 0.00 | 0.00 | 71 | 1013.2 |
| 20260508050012 | 45 | 224 | 0.0 | 0.0 | 0.00 | 0.00 | 0.00 | 71 | 1013.2 |
| 20260508044506 | 44 | 233 | 0.9 | 2.6 | 0.00 | 0.00 | 0.00 | 70 | 1013.2 |
| 20260508043004 | 44 | 217 | 0.0 | 0.9 | 0.00 | 0.00 | 0.00 | 70 | 1013.3 |
| 20260508041504 | 44 | 218 | 0.0 | 1.7 | 0.00 | 0.00 | 0.00 | 69 | 1013.2 |
| 20260508040200 | 44 | 226 | 0.9 | 4.3 | 0.00 | 0.00 | 0.00 | 67 | 1013.2 |
| 20260508034559 | 44 | 226 | 0.0 | 3.5 | 0.00 | 0.00 | 0.00 | 65 | 1013.2 |
| 20260508033059 | 43 | 209 | 0.0 | 0.0 | 0.00 | 0.00 | 0.00 | 65 | 1013.2 |
| 20260508031558 | 44 | 257 | 0.0 | 0.0 | 0.00 | 0.00 | 0.00 | 66 | 1013.2 |
| 20260508030058 | 43 | 257 | 0.0 | 0.0 | 0.00 | 0.00 | 0.00 | 65 | 1013.2 |
| 20260508024556 | 44 | 257 | 0.0 | 0.0 | 0.00 | 0.00 | 0.00 | 65 | 1013.3 |
| 20260508023056 | 44 | 257 | 0.0 | 0.0 | 0.00 | 0.00 | 0.00 | 63 | 1013.2 |
| 20260508021556 | 45 | 257 | 0.0 | 0.0 | 0.00 | 0.00 | 0.00 | 61 | 1013.2 |
| 20260508020058 | 45 | 257 | 0.0 | 0.0 | 0.00 | 0.00 | 0.00 | 63 | 1013.1 |
| 20260508014555 | 46 | 257 | 0.0 | 0.0 | 0.00 | 0.00 | 0.00 | 60 | 1013.0 |
| 20260508013055 | 46 | 257 | 0.0 | 0.0 | 0.00 | 0.00 | 0.00 | 58 | 1012.9 |
| 20260508011554 | 48 | 257 | 0.0 | 1.7 | 0.00 | 0.00 | 0.00 | 53 | 1012.9 |
| 20260508010100 | 48 | 257 | 0.0 | 1.7 | 0.00 | 0.00 | 0.00 | 51 | 1012.8 |
| 20260508004604 | 49 | 253 | 1.7 | 3.5 | 0.00 | 0.00 | 0.00 | 49 | 1012.8 |
| 20260508003059 | 50 | 268 | 1.7 | 7.0 | 0.00 | 0.00 | 0.00 | 48 | 1012.7 |
| 20260508001600 | 51 | 269 | 3.5 | 7.0 | 0.00 | 0.00 | 0.00 | 46 | 1012.7 |
| 20260507234602 | 52 | 270 | 4.3 | 10.4 | 0.00 | 0.00 | 0.00 | 45 | 1012.3 |
| 20260507233116 | 52 | 282 | 7.0 | 13.9 | 0.00 | 0.00 | 0.00 | 44 | 1012.4 |
| 20260507231555 | 53 | 248 | 5.2 | 13.0 | 0.00 | 0.00 | 0.00 | 44 | 1012.4 |
| 20260507230054 | 53 | 282 | 6.1 | 12.2 | 0.00 | 0.00 | 0.00 | 43 | 1012.5 |
| 20260507224554 | 53 | 274 | 8.7 | 14.8 | 0.00 | 0.00 | 0.00 | 42 | 1012.4 |
| 20260507223104 | 53 | 297 | 9.6 | 15.6 | 0.00 | 0.00 | 0.00 | 42 | 1012.5 |
| 20260507221552 | 54 | 253 | 7.0 | 13.9 | 0.00 | 0.00 | 0.00 | 42 | 1012.5 |
| 20260507220052 | 53 | 288 | 6.1 | 18.2 | 0.00 | 0.00 | 0.00 | 50 | 1012.4 |
| 20260507214553 | 53 | 292 | 7.0 | 14.8 | 0.00 | 0.00 | 0.00 | 52 | 1012.4 |
| 20260507213046 | 53 | 288 | 5.2 | 13.9 | 0.00 | 0.00 | 0.00 | 53 | 1012.2 |
| 20260507211556 | 52 | 285 | 5.2 | 13.0 | 0.00 | 0.00 | 0.00 | 56 | 1012.0 |
| 20260507210106 | 51 | 296 | 3.5 | 8.7 | 0.00 | 0.00 | 0.00 | 59 | 1011.8 |
| 20260507204549 | 51 | 286 | 7.0 | 11.3 | 0.00 | 0.00 | 0.00 | 58 | 1011.9 |
| 20260507203047 | 52 | 309 | 5.2 | 13.0 | 0.00 | 0.00 | 0.00 | 56 | 1011.7 |
| 20260507201547 | 52 | 320 | 3.5 | 7.8 | 0.00 | 0.00 | 0.00 | 56 | 1011.6 |
| 20260507200053 | 53 | 298 | 3.5 | 9.6 | 0.00 | 0.00 | 0.00 | 54 | 1011.5 |
| 20260507194553 | 53 | 325 | 3.5 | 7.8 | 0.00 | 0.00 | 0.00 | 54 | 1011.7 |
| 20260507193042 | 54 | 271 | 1.7 | 7.0 | 0.00 | 0.00 | 0.00 | 52 | 1011.8 |
| 20260507191545 | 53 | 312 | 2.6 | 11.3 | 0.00 | 0.00 | 0.00 | 51 | 1011.8 |
| 20260507190047 | 52 | 32 | 2.6 | 8.7 | 0.00 | 0.00 | 0.00 | 51 | 1012.0 |
| 20260507184544 | 52 | 307 | 4.3 | 8.7 | 0.00 | 0.00 | 0.00 | 52 | 1012.2 |
| 20260507183050 | 51 | 297 | 4.3 | 8.7 | 0.00 | 0.00 | 0.00 | 52 | 1012.2 |
| 20260507181538 | 52 | 323 | 4.3 | 9.6 | 0.00 | 0.00 | 0.00 | 52 | 1012.1 |
| 20260507180037 | 53 | 290 | 4.3 | 10.4 | 0.00 | 0.00 | 0.00 | 53 | 1012.0 |
| 20260507174536 | 53 | 298 | 3.5 | 7.0 | 0.00 | 0.00 | 0.00 | 55 | 1012.1 |
| 20260507173044 | 53 | 274 | 4.3 | 9.6 | 0.00 | 0.00 | 0.00 | 56 | 1012.1 |
| 20260507171533 | 55 | 274 | 4.3 | 9.6 | 0.00 | 0.00 | 0.00 | 52 | 1012.1 |
| 20260507170033 | 53 | 246 | 5.2 | 9.6 | 0.00 | 0.00 | 0.00 | 55 | 1012.3 |
| 20260507164544 | 53 | 263 | 4.3 | 9.6 | 0.00 | 0.00 | 0.00 | 52 | 1012.2 |
| 20260507163032 | 55 | 248 | 5.2 | 12.2 | 0.00 | 0.00 | 0.00 | 45 | 1012.2 |
| 20260507161539 | 56 | 283 | 1.7 | 6.1 | 0.00 | 0.00 | 0.00 | 48 | 1012.1 |
| 20260507160028 | 55 | 278 | 2.6 | 7.8 | 0.00 | 0.00 | 0.00 | 47 | 1012.2 |
| 20260507154526 | 54 | 298 | 2.6 | 9.6 | 0.00 | 0.00 | 0.00 | 46 | 1012.3 |
| 20260507153033 | 54 | 275 | 4.3 | 11.3 | 0.00 | 0.00 | 0.00 | 44 | 1012.4 |
| 20260507151522 | 53 | 194 | 1.7 | 7.0 | 0.00 | 0.00 | 0.00 | 46 | 1012.5 |
| 20260507150021 | 53 | 298 | 1.7 | 6.1 | 0.00 | 0.00 | 0.00 | 50 | 1012.5 |
| 20260507144525 | 53 | 254 | 2.6 | 5.2 | 0.00 | 0.00 | 0.00 | 53 | 1012.5 |
| 20260507143022 | 52 | 287 | 2.6 | 5.2 | 0.00 | 0.00 | 0.00 | 54 | 1012.6 |
| 20260507141519 | 51 | 248 | 0.9 | 7.0 | 0.00 | 0.00 | 0.00 | 58 | 1012.8 |
| 20260507140019 | 51 | 294 | 2.6 | 7.0 | 0.00 | 0.00 | 0.00 | 56 | 1012.9 |
| 20260507134513 | 51 | 287 | 0.0 | 6.1 | 0.00 | 0.00 | 0.00 | 61 | 1013.0 |
| 20260507133009 | 49 | 284 | 2.6 | 7.0 | 0.00 | 0.00 | 0.00 | 62 | 1013.2 |
| 20260507131516 | 49 | 269 | 2.6 | 4.3 | 0.00 | 0.00 | 0.00 | 68 | 1013.3 |
| 20260507130003 | 48 | 352 | 1.7 | 5.2 | 0.00 | 0.00 | 0.00 | 72 | 1013.3 |
| 20260507124508 | 47 | 219 | 1.7 | 5.2 | 0.00 | 0.00 | 0.00 | 73 | 1013.0 |
| 20260507123100 | 47 | 244 | 1.7 | 4.3 | 0.00 | 0.00 | 0.00 | 73 | 1013.0 |
| 20260507121557 | 47 | 205 | 0.9 | 5.2 | 0.00 | 0.00 | 0.00 | 75 | 1012.9 |
| 20260507120054 | 45 | 214 | 0.0 | 3.5 | 0.00 | 0.00 | 0.00 | 78 | 1012.9 |
| 20260507114606 | 44 | 198 | 0.9 | 3.5 | 0.00 | 0.00 | 0.00 | 79 | 1012.9 |
| 20260507113109 | 43 | 230 | 1.7 | 4.3 | 0.00 | 0.00 | 0.00 | 81 | 1013.0 |
| 20260507111553 | 42 | 219 | 0.9 | 2.6 | 0.00 | 0.00 | 0.00 | 83 | 1012.9 |
| 20260507110029 | 40 | 219 | 0.9 | 3.5 | 0.00 | 0.01 | 0.00 | 85 | 1012.8 |
| 20260507104538 | 40 | 231 | 0.9 | 2.6 | 0.00 | 0.01 | 0.00 | 86 | 1012.6 |
| 20260507103027 | 40 | 231 | 0.9 | 2.6 | 0.00 | 0.01 | 0.00 | 85 | 1012.6 |
| 20260507101526 | 40 | 231 | 0.0 | 2.6 | 0.00 | 0.01 | 0.00 | 85 | 1012.6 |
| 20260507100025 | 41 | 231 | 0.9 | 2.6 | 0.00 | 0.07 | 0.00 | 85 | 1012.5 |
| 20260507094525 | 41 | 231 | 0.0 | 1.7 | 0.00 | 0.07 | 0.00 | 85 | 1012.6 |
| 20260507093023 | 41 | 231 | 0.9 | 2.6 | 0.00 | 0.07 | 0.00 | 84 | 1012.5 |
| 20260507091524 | 41 | 231 | 0.0 | 2.6 | 0.00 | 0.07 | 0.00 | 85 | 1012.7 |
| 20260507090023 | 40 | 231 | 0.0 | 1.7 | 0.00 | 0.12 | 0.00 | 86 | 1012.7 |
| 20260507084525 | 40 | 231 | 0.0 | 2.6 | 0.00 | 0.12 | 0.00 | 86 | 1012.7 |
| 20260507083020 | 40 | 209 | 0.9 | 1.7 | 0.00 | 0.12 | 0.00 | 87 | 1012.8 |
| 20260507081532 | 40 | 153 | 1.7 | 2.6 | 0.00 | 0.12 | 0.00 | 86 | 1012.8 |
| 20260507080018 | 40 | 157 | 0.0 | 1.7 | 0.00 | 0.21 | 0.00 | 86 | 1012.9 |
| 20260507074516 | 40 | 157 | 0.0 | 0.9 | 0.00 | 0.21 | 0.00 | 85 | 1012.8 |
| 20260507073015 | 40 | 157 | 0.0 | 0.0 | 0.00 | 0.21 | 0.00 | 85 | 1012.8 |
| 20260507071512 | 41 | 155 | 0.0 | 1.7 | 0.00 | 0.21 | 0.00 | 83 | 1012.9 |
| 20260507070013 | 42 | 157 | 1.7 | 3.5 | 0.00 | 0.28 | 0.00 | 82 | 1013.0 |
| 20260507064508 | 41 | 152 | 1.7 | 3.5 | 0.00 | 0.28 | 0.00 | 83 | 1013.1 |
| 20260507063008 | 42 | 154 | 0.9 | 4.3 | 0.00 | 0.28 | 0.00 | 83 | 1013.2 |
| 20260507061505 | 42 | 143 | 0.0 | 1.7 | 0.00 | 0.28 | 0.00 | 83 | 1013.4 |
| 20260507060003 | 42 | 142 | 0.0 | 4.3 | 0.00 | 0.35 | 0.00 | 83 | 1013.4 |